#timestamp,LO_Frequency,Hit,StdDev 
1617966015.3,286047003.2,N
1617966035.1,286047003.3,N
1617966055.9,286047003.5,N
1617966075.7,286047002.8,N
1617966095.6,286047000.2,N
1617966115.4,286047002.5,N
1617966135.2,286047000.1,N
1617966155.1,286046999.1,N
1617966156.0,286046999.1,N
1617966175.8,286046996.6,N
1617966195.6,286046994.9,N
1617966215.5,286046993.5,N
1617966235.3,286046995.5,N
1617966255.2,286046996.8,N
1617966275.9,286046997.1,N
1617966295.7,286046996.9,N
1617966315.6,286046997.4,N
1617966335.4,286046995.7,N
1617966355.2,286046995.7,N
1617966375.1,286046998.0,N
1617966376.0,286046998.0,N
1617966395.8,286046999.3,N
1617966415.7,286046997.9,N
1617966435.5,286046996.5,N
1617966455.3,286046999.2,N
1617966475.2,286046999.6,N
1617966495.0,286046998.8,N
1617966495.9,286046998.8,N
1617966515.8,286047000.2,N
1617966535.6,286047000.4,N
1617966555.4,286047002.0,N
1617966575.3,286047003.1,N
1617966595.1,286047004.2,N
1617966615.9,286047004.3,N
1617966635.7,286047001.6,N
1617966655.5,286047004.0,N
1617966675.4,286047001.8,N
1617966695.2,286047001.9,N
1617966715.1,286047002.0,N
1617966716.0,286047002.0,N
1617966735.8,286046999.9,N
1617966755.6,286046999.8,N
1617966775.5,286047002.3,N
1617966795.3,286047002.6,N
1617966815.1,286047000.1,N
1617966835.9,286047000.3,N
1617966855.7,286047002.8,N
1617966875.6,286046999.9,N
1617966895.4,286047002.2,N
1617966915.2,286047000.6,N
1617966935.1,286047002.7,N
1617966936.0,286047002.7,N
1617966955.8,286047001.8,N
1617966975.6,286047003.5,N
1617966995.5,286047005.1,Y
1617967015.3,286047000.3,P
1617967035.2,286046998.2,P
1617967055.9,286047000.9,N
1617967075.7,286046998.1,N
1617967095.6,286046998.4,N
1617967115.4,286047002.2,N
1617967135.2,286046999.8,N
1617967155.1,286046995.8,N
1617967156.0,286046995.8,N
1617967175.8,286046995.3,N
1617967195.7,286047000.8,N
1617967215.5,286047002.2,N
1617967235.3,286047002.2,N
1617967255.2,286047002.5,N
1617967275.0,286047002.6,N
1617967275.9,286047002.6,N
1617967295.7,286047000.9,N
1617967315.6,286046998.6,N
1617967335.4,286047001.1,N
1617967355.3,286046998.9,N
1617967375.1,286046996.6,N
1617967395.8,286046999.6,N
1617967415.7,286046998.2,N
1617967435.5,286046997.3,N
1617967455.4,286046998.6,N
1617967475.2,286047000.4,N
1617967495.0,286047000.2,N
1617967495.9,286047000.2,N
1617967515.8,286046998.1,N
1617967535.6,286046998.3,N
1617967555.4,286046997.0,N
1617967575.3,286046995.5,N
1617967595.1,286046996.2,N
1617967615.9,286046996.4,N
1617967635.7,286046995.8,N
1617967655.5,286046999.5,N
1617967675.4,286046999.1,N
1617967695.2,286046996.9,N
1617967715.0,286046999.5,N
1617967715.9,286046999.5,N
1617967735.8,286046996.5,N
1617967755.6,286046996.6,N
1617967775.5,286046996.5,N
1617967795.3,286046996.8,N
1617967815.1,286046996.9,N
1617967835.9,286047000.8,N
1617967855.7,286046996.6,N
1617967875.5,286046997.2,N
1617967895.4,286046994.9,Y
1617967915.2,286046998.2,P
1617967935.1,286046999.3,P
1617967936.0,286046999.3,N
1617967955.8,286046996.9,Y
1617967975.6,286046996.9,P
1617967995.5,286046997.0,P
1617968015.3,286046999.5,N
1617968035.2,286047000.1,N
1617968055.9,286046999.9,N
1617968075.7,286046998.8,N
1617968095.6,286046997.1,N
1617968115.4,286046997.8,N
1617968135.2,286046997.4,N
1617968155.1,286046997.5,N
1617968156.0,286046997.5,N
1617968175.8,286046997.9,N
1617968195.7,286046997.3,N
1617968215.5,286046996.8,Y
1617968235.3,286047000.8,P
1617968255.2,286047000.8,N
1617968275.0,286046998.5,N
1617968275.9,286046998.5,N
1617968295.7,286047000.2,N
1617968315.6,286047002.5,N
1617968335.4,286046999.9,N
1617968355.3,286046998.2,N
1617968375.1,286046998.9,N
1617968376.0,286046998.9,N
1617968395.8,286046998.9,N
1617968415.7,286046999.6,N
1617968435.5,286046997.6,N
1617968455.3,286046995.4,Y
1617968475.2,286046997.6,P
1617968495.0,286046995.1,P
1617968495.9,286046995.1,N
1617968515.8,286046995.2,N
1617968535.6,286046996.0,N
1617968555.4,286046994.5,Y
1617968575.3,286046999.2,P
1617968595.1,286046999.5,N
1617968615.9,286046998.9,N
1617968635.7,286046998.3,N
1617968655.5,286046998.1,N
1617968675.4,286046998.4,N
1617968695.2,286046997.1,Y
1617968715.0,286046998.5,P
1617968715.9,286046998.5,P
1617968735.8,286047000.1,N
1617968755.6,286047001.0,N
1617968775.5,286047000.4,N
1617968795.3,286046996.6,Y
1617968815.1,286046996.5,P
1617968835.9,286046999.0,N
1617968855.7,286046998.4,N
1617968875.6,286047001.2,N
1617968895.4,286047000.4,N
1617968915.2,286046999.7,N
1617968935.1,286046999.9,N
1617968936.0,286046999.9,N
1617968955.8,286047002.0,N
1617968975.6,286047003.8,N
1617968995.5,286047004.1,N
1617969015.3,286047002.3,N
1617969035.2,286047001.2,N
1617969055.9,286047001.0,N
1617969075.7,286047002.2,N
1617969095.6,286047002.3,N
1617969115.4,286047000.0,N
1617969135.2,286047002.2,N
1617969155.1,286047001.8,N
1617969156.0,286047001.8,N
1617969175.8,286047003.2,N
1617969195.7,286047005.7,Y
1617969215.5,286047002.2,P
1617969235.3,286047000.2,N
1617969255.2,286047001.8,N
1617969275.0,286047001.9,N
1617969275.9,286047001.9,N
1617969295.7,286046998.5,N
1617969315.6,286046999.5,N
1617969335.4,286046997.1,N
1617969355.3,286047000.6,N
1617969375.1,286047001.9,N
1617969376.0,286047001.9,N
1617969395.8,286047002.3,N
1617969415.7,286047001.0,N
1617969435.5,286047002.4,N
1617969455.3,286047001.6,N
1617969475.2,286047002.1,N
1617969495.0,286047002.0,N
1617969495.9,286047002.0,N
1617969515.8,286047004.1,N
1617969535.6,286047003.2,N
1617969555.4,286047004.2,N
1617969575.3,286047002.7,N
1617969595.1,286047002.2,N
